Location: Unspecified
(0.0000°N, 0.0000°E)
Time: 23:55:06
(UTC+00:00)

N. Korean satellite - Pass Details

Date: 14 July 2019
Orbit: 456 x 508 km, 97.2° (Epoch: 21 July)

Event Time Altitude Azimuth Distance (km) Brightness Sun altitude
Rises 05:38:53 0° 10° (N) 2,583 10.7 -6.3°
Reaches altitude 10° 05:40:57 10° 9° (N) 1,707 9.8 -5.8°
Maximum altitude 05:44:38 84° 283° (WNW) 513 6.6 -4.9°
Drops below altitude 10° 05:48:21 10° 192° (SSW) 1,723 9.0 -4.1°
Sets 05:50:27 0° 192° (SSW) 2,609 9.9 -3.6°
